GW5855 Weather Reports


time (UTC)temp
C
wind
direction
speed
KPH
gust
KPH
rain 1hr
cm
rain 24hr
cm
rain mn
cm
humidity
%
barometer
mb
20260906125911 21 354 8.0 11.3 0.00 0.03 0.03 94 1024.8
20260906125408 21 24 8.0 9.7 0.00 0.03 0.03 94 1025.1
20260906124902 21 6 4.8 6.4 0.00 0.03 0.03 94 1025.0
20260906124358 21 307 3.2 3.2 0.00 0.03 0.03 94 1025.1
20260906123858 21 50 4.8 8.0 0.00 0.03 0.03 94 1024.8
20260906123352 21 0 4.8 6.4 0.00 0.03 0.03 94 1024.8
20260906122852 21 335 4.8 8.0 0.00 0.03 0.03 94 1024.7
20260906122347 21 317 6.4 8.0 0.00 0.03 0.03 94 1024.7
20260906121844 21 356 4.8 6.4 0.00 0.03 0.03 94 1024.6
20260906121339 21 345 6.4 8.0 0.00 0.03 0.03 94 1024.6
20260906120836 21 30 3.2 6.4 0.00 0.03 0.03 94 1024.6
20260906120331 21 301 3.2 3.2 0.00 0.03 0.03 94 1024.5
20260906115827 21 292 3.2 3.2 0.00 0.03 0.03 94 1024.6
20260906115322 21 312 1.6 3.2 0.00 0.03 0.03 94 1024.5
20260906114821 20 296 0.0 0.0 0.00 0.03 0.03 94 1024.4
20260906114317 20 277 0.0 0.0 0.00 0.03 0.03 94 1024.3
20260906113812 20 277 0.0 0.0 0.00 0.03 0.03 94 1024.4
20260906113311 20 277 0.0 0.0 0.00 0.03 0.03 94 1024.6
20260906112807 20 279 0.0 0.0 0.00 0.03 0.03 94 1024.3
20260906112306 20 261 0.0 0.0 0.00 0.03 0.03 94 1024.2
20260906111802 19 259 0.0 0.0 0.00 0.03 0.03 94 1024.2
20260906111301 20 262 0.0 0.0 0.00 0.03 0.03 94 1024.0
20260906110757 20 262 0.0 0.0 0.00 0.03 0.03 94 1024.0
20260906110253 20 261 0.0 0.0 0.00 0.03 0.03 94 1023.9
20260906105752 19 261 0.0 0.0 0.00 0.03 0.03 94 1023.8
20260906105248 19 261 0.0 0.0 0.00 0.03 0.03 94 1023.8
20260906104743 19 245 0.0 0.0 0.00 0.03 0.03 94 1023.7
20260906104241 19 245 1.6 1.6 0.00 0.03 0.03 94 1023.9
20260906103739 19 249 0.0 0.0 0.00 0.03 0.03 94 1023.6
20260906103233 20 239 1.6 1.6 0.00 0.03 0.03 94 1023.4
20260906102729 20 235 1.6 1.6 0.00 0.03 0.03 94 1023.6
20260906102223 20 262 0.0 0.0 0.18 0.03 0.03 94 1023.5
20260906101718 20 262 0.0 0.0 0.18 0.03 0.03 94 1023.5
20260906101213 20 262 0.0 1.6 0.00 0.00 0.00 94 1023.4
20260906100708 20 261 0.0 0.0 0.00 0.00 0.00 94 1023.2
20260906100203 20 277 0.0 0.0 0.00 0.00 0.00 94 1023.1
20260906095703 20 277 0.0 0.0 0.00 0.00 0.00 94 1023.1
20260906095158 20 283 1.6 1.6 0.00 0.00 0.00 94 1023.2
20260906094657 20 307 1.6 1.6 0.00 0.00 0.00 94 1023.1
20260906094153 20 288 0.0 0.0 0.00 0.00 0.00 94 1023.1
20260906093650 20 288 0.0 0.0 0.00 0.00 0.00 94 1022.9
20260906093149 20 288 0.0 0.0 0.00 0.00 0.00 94 1022.8
20260906092644 20 288 0.0 0.0 0.00 0.00 0.00 94 1022.8
20260906092144 20 289 1.6 1.6 0.00 0.00 0.00 94 1022.5
20260906091641 20 289 1.6 1.6 0.00 0.00 0.00 94 1022.7
20260906091137 20 283 1.6 1.6 0.00 0.00 0.00 94 1022.8
20260906090632 20 273 0.0 1.6 0.00 0.00 0.00 94 1022.7
20260906090132 20 285 1.6 1.6 0.00 0.00 0.00 94 1022.7
20260906085632 20 272 0.0 1.6 0.00 0.00 0.00 94 1022.8
20260906085131 20 269 0.0 0.0 0.00 0.00 0.00 94 1022.8
20260906084626 20 269 0.0 0.0 0.00 0.00 0.00 94 1022.7
20260906084125 20 269 0.0 0.0 0.00 0.00 0.00 94 1022.9
20260906083620 20 269 0.0 0.0 0.00 0.00 0.00 94 1022.7
20260906083115 20 269 0.0 0.0 0.00 0.00 0.00 94 1022.9
20260906082610 20 281 0.0 0.0 0.00 0.00 0.00 94 1023.1
20260906082106 20 281 0.0 0.0 0.00 0.00 0.00 94 1023.1
20260906081602 20 282 1.6 1.6 0.00 0.00 0.00 94 1022.9
20260906081057 20 287 0.0 0.0 0.00 0.00 0.00 94 1023.0
20260906080553 20 305 1.6 1.6 0.00 0.00 0.00 94 1023.0
20260906080049 20 262 0.0 0.0 0.00 0.00 0.00 94 1022.9
20260906075549 20 262 0.0 0.0 0.00 0.00 0.00 94 1022.9
20260906075044 20 262 0.0 0.0 0.00 0.00 0.00 94 1023.0
20260906074538 20 249 0.0 0.0 0.00 0.00 0.00 94 1023.1
20260906074037 20 249 0.0 0.0 0.00 0.00 0.00 94 1023.0
20260906073532 20 249 0.0 0.0 0.00 0.00 0.00 94 1023.1
20260906073028 20 249 0.0 0.0 0.00 0.00 0.00 94 1023.0
20260906072523 20 248 0.0 0.0 0.00 0.00 0.00 94 1023.0
20260906072020 20 261 0.0 0.0 0.00 0.00 0.00 94 1023.1
20260906071515 20 262 0.0 0.0 0.00 0.00 0.00 94 1023.0
20260906071010 20 263 0.0 0.0 0.00 0.00 0.00 94 1022.9
20260906070507 20 262 0.0 0.0 0.00 0.00 0.00 94 1023.0
20260906070002 20 242 0.0 0.0 0.00 0.00 0.00 94 1023.1
20260906065501 20 242 1.6 1.6 0.00 0.00 0.00 94 1023.3
20260906064957 20 242 1.6 1.6 0.00 0.00 0.00 94 1023.5
20260906064453 20 241 1.6 1.6 0.00 0.00 0.00 94 1023.4
20260906063947 20 241 0.0 1.6 0.00 0.00 0.00 94 1023.4
20260906063443 20 233 1.6 1.6 0.00 0.00 0.00 94 1023.1
20260906062943 20 258 0.0 0.0 0.00 0.00 0.00 94 1023.6
20260906062438 20 258 0.0 0.0 0.00 0.00 0.00 94 1023.6
20260906061933 20 257 1.6 1.6 0.00 0.00 0.00 94 1023.4
20260906061429 20 282 0.0 0.0 0.00 0.00 0.00 94 1023.5
20260906060923 20 290 0.0 0.0 0.00 0.00 0.00 94 1023.5
20260906060421 20 278 1.6 1.6 0.00 0.00 0.00 94 1023.4
20260906055917 20 266 1.6 1.6 0.00 0.00 0.00 94 1023.4
20260906055412 20 266 0.0 1.6 0.00 0.00 0.00 94 1023.4
20260906054908 20 266 0.0 0.0 0.00 0.00 0.00 94 1023.5
20260906054402 20 263 0.0 0.0 0.00 0.00 0.00 94 1023.4
20260906053858 20 262 0.0 0.0 0.00 0.00 0.00 94 1023.4
20260906053354 20 272 0.0 0.0 0.00 0.00 0.00 94 1023.4
20260906052850 20 294 1.6 1.6 0.00 0.00 0.00 94 1023.3
20260906052346 20 275 0.0 0.0 0.00 0.00 0.00 94 1023.4
20260906051843 20 277 0.0 0.0 0.00 0.00 0.00 94 1023.2
20260906051342 20 304 3.2 3.2 0.00 0.00 0.00 94 1023.5
20260906050838 20 291 1.6 1.6 0.00 0.00 0.00 94 1023.5
20260906050333 20 287 1.6 1.6 0.00 0.00 0.00 94 1023.7
20260906045831 20 261 0.0 0.0 0.00 0.00 0.00 94 1023.7
20260906045326 20 270 1.6 1.6 0.00 0.00 0.00 94 1023.7
20260906044823 20 244 1.6 1.6 0.00 0.00 0.00 94 1023.8
20260906044317 20 264 1.6 1.6 0.00 0.00 0.00 94 1024.0
20260906043813 20 311 3.2 3.2 0.00 0.00 0.00 94 1024.2
20260906043309 20 267 0.0 0.0 0.00 0.00 0.00 94 1024.0
20260906042808 20 267 0.0 0.0 0.00 0.00 0.00 94 1023.9
20260906042307 20 268 0.0 0.0 0.00 0.00 0.00 94 1024.3
20260906041804 20 264 0.0 0.0 0.00 0.00 0.00 94 1024.3
20260906041304 20 261 0.0 0.0 0.00 0.00 0.00 94 1024.2
20260906040759 20 261 0.0 0.0 0.00 0.00 0.00 94 1024.2
20260906040254 21 261 0.0 0.0 0.00 0.00 0.00 94 1024.2
20260906035749 21 285 0.0 0.0 0.00 1.57 1.57 94 1024.2
20260906035246 20 305 1.6 1.6 0.00 1.57 1.57 94 1024.3
20260906034745 20 318 3.2 3.2 0.00 1.57 1.57 94 1024.5
20260906034240 21 241 1.6 1.6 0.00 1.57 1.57 94 1024.2
20260906033736 20 266 0.0 0.0 0.00 1.57 1.57 94 1024.2
20260906033235 21 266 0.0 0.0 0.00 1.57 1.57 94 1024.2
20260906032732 21 266 1.6 1.6 0.00 1.57 1.57 94 1024.3
20260906032227 21 271 0.0 0.0 0.00 1.57 1.57 94 1024.5
20260906031722 21 285 1.6 1.6 0.00 1.57 1.57 94 1024.2
20260906031218 21 259 0.0 0.0 0.00 1.57 1.57 94 1024.3
20260906030718 21 259 0.0 0.0 0.00 1.57 1.57 94 1024.4
20260906030213 21 261 1.6 1.6 0.00 1.57 1.57 94 1024.4
20260906025711 21 275 0.0 0.0 0.00 1.57 1.57 94 1024.3
20260906025206 21 265 0.0 0.0 0.00 1.57 1.57 94 1024.5
20260906024705 21 242 0.0 1.6 0.00 1.57 1.57 94 1024.5
20260906024204 21 233 3.2 3.2 0.00 1.57 1.57 94 1024.7
20260906023701 21 239 0.0 1.6 0.00 1.57 1.57 94 1024.8
20260906023200 21 208 1.6 1.6 0.00 1.57 1.57 94 1024.9
20260906022655 21 190 1.6 3.2 0.00 1.57 1.57 94 1025.0
20260906022151 21 250 1.6 1.6 0.00 1.57 1.57 94 1025.0
20260906021647 21 233 3.2 6.4 0.00 1.57 1.57 94 1024.6
20260906021145 21 187 3.2 3.2 0.00 1.57 1.57 94 1024.5
20260906020640 21 204 3.2 3.2 0.00 1.57 1.57 94 1024.1
20260906020135 21 133 3.2 3.2 0.00 1.57 1.57 94 1024.3
20260906015629 21 313 1.6 1.6 0.00 1.57 1.57 94 1024.4
20260906015129 21 161 4.8 8.0 0.00 1.57 1.57 94 1024.4
20260906014628 21 102 4.8 6.4 0.00 1.57 1.57 94 1024.2
20260906014125 21 206 3.2 3.2 0.00 1.57 1.57 94 1024.2
20260906013620 21 113 4.8 8.0 0.13 1.57 1.57 94 1024.2
20260906013115 20 277 1.6 1.6 0.13 1.57 1.57 94 1024.3
20260906012610 20 40 3.2 3.2 0.13 1.57 1.57 94 1023.8
20260906012110 20 111 4.8 6.4 0.00 1.55 1.55 94 1023.3
20260906011607 20 157 3.2 3.2 0.00 1.55 1.55 94 1023.5
20260906011106 20 158 4.8 6.4 0.00 1.55 1.55 94 1023.9
20260906010602 20 227 0.0 1.6 0.00 1.55 1.55 94 1024.3
20260906010058 20 320 4.8 6.4 0.00 1.55 1.55 94 1024.0
20260906005557 20 266 3.2 3.2 0.00 1.55 1.55 94 1023.9
20260906005056 20 267 0.0 0.0 0.00 1.55 1.55 94 1023.6
20260906004556 20 267 0.0 0.0 0.00 1.55 1.55 94 1023.8
20260906004051 20 264 3.2 3.2 0.00 1.55 1.55 94 1023.7
20260906003540 20 219 3.2 3.2 0.00 1.55 1.55 94 1023.6
20260906003037 20 282 0.0 0.0 0.00 1.55 1.55 94 1023.7
20260906002536 20 322 1.6 1.6 0.00 1.55 1.55 94 1023.8
20260906002032 20 261 1.6 1.6 0.00 1.55 1.55 94 1023.7
20260906001528 20 259 0.0 0.0 0.00 1.55 1.55 94 1023.7
20260906001027 20 249 0.0 0.0 0.00 1.55 1.55 94 1023.6
20260906000523 20 243 0.0 1.6 0.00 1.55 1.55 94 1023.4
20260906000018 20 275 0.0 0.0 0.00 1.55 1.55 94 1023.4
20260905235517 20 280 0.0 1.6 0.00 1.55 1.55 94 1023.5
20260905235013 20 272 0.0 0.0 0.00 1.55 1.55 94 1023.5
20260905234509 20 52 3.2 6.4 0.00 1.55 1.55 94 1023.5
20260905234008 20 18 4.8 6.4 0.00 1.55 1.55 94 1023.2
20260905233503 20 240 3.2 3.2 0.00 1.55 1.55 94 1023.2
20260905233003 20 5 6.4 8.0 0.00 1.55 1.55 94 1023.7
20260905232458 20 87 6.4 9.7 0.00 1.55 1.55 94 1023.9
20260905231954 20 238 1.6 1.6 0.00 1.55 1.55 94 1023.7
20260905231449 20 210 0.0 0.0 0.00 1.55 1.55 94 1023.9
20260905230946 20 258 0.0 0.0 0.00 1.55 1.55 94 1023.9
20260905230444 20 170 3.2 3.2 0.00 1.55 1.55 94 1023.6
20260905225942 20 252 3.2 6.4 0.00 1.55 1.55 94 1023.3
20260905225438 20 258 0.0 0.0 0.00 1.55 1.55 94 1023.0
20260905224933 21 195 4.8 6.4 0.18 1.55 1.55 94 1022.9
20260905224429 21 210 6.4 8.0 0.36 1.55 1.55 94 1022.7
20260905223928 21 243 1.6 1.6 0.89 1.52 1.52 94 1023.5
20260905223426 21 219 3.2 6.4 2.87 1.52 1.52 94 1023.9
20260905222926 21 239 3.2 3.2 5.23 1.42 1.42 94 1024.6
20260905222426 21 29 9.7 12.9 5.33 1.04 1.04 93 1024.9
20260905221921 22 46 11.3 19.3 3.07 0.53 0.53 92 1025.5
20260905221418 25 20 11.3 14.5 0.48 0.10 0.10 85 1024.8
20260905220914 25 38 4.8 8.0 0.00 0.03 0.03 80 1024.2
20260905220410 26 30 20.9 27.4 0.00 0.03 0.03 79 1023.7
20260905215908 27 315 9.7 11.3 0.00 0.03 0.03 86 1022.8
20260905215404 27 246 0.0 0.0 0.00 0.03 0.03 86 1021.4
20260905214901 28 259 1.6 3.2 0.00 0.03 0.03 87 1021.6
20260905214356 28 194 1.6 1.6 0.00 0.03 0.03 88 1021.6
20260905213850 27 209 3.2 3.2 0.00 0.03 0.03 85 1021.9
20260905213348 27 327 4.8 6.4 0.00 0.03 0.03 88 1022.1
20260905212847 27 292 3.2 6.4 0.00 0.03 0.03 86 1021.9
20260905212342 28 259 3.2 3.2 0.00 0.03 0.03 85 1021.8
20260905211841 28 233 3.2 3.2 0.13 0.03 0.03 85 1022.0
20260905211337 29 257 3.2 3.2 0.13 0.03 0.03 83 1021.9
20260905210834 30 251 1.6 1.6 0.00 0.00 0.00 80 1021.8
20260905210333 32 264 1.6 3.2 0.00 0.00 0.00 73 1022.2
20260905205832 33 243 1.6 1.6 0.00 0.00 0.00 61 1022.2
20260905205327 33 270 3.2 3.2 0.00 0.00 0.00 60 1022.0
20260905204826 34 237 3.2 6.4 0.00 0.00 0.00 58 1021.8
20260905204323 36 242 1.6 1.6 0.00 0.00 0.00 54 1021.7
20260905203821 35 231 4.8 6.4 0.00 0.00 0.00 57 1021.6
20260905203317 36 253 3.2 3.2 0.00 0.00 0.00 55 1021.5
20260905202813 36 259 0.0 1.6 0.00 0.00 0.00 54 1021.4
20260905202307 36 233 3.2 6.4 0.00 0.00 0.00 54 1021.6
20260905201803 36 226 0.0 0.0 0.00 0.00 0.00 51 1021.7
20260905201258 35 241 3.2 3.2 0.00 0.00 0.00 53 1021.5
20260905200753 35 255 1.6 3.2 0.00 0.00 0.00 53 1021.6
20260905200249 35 228 3.2 6.4 0.00 0.00 0.00 53 1021.8
20260905195746 36 251 8.0 9.7 0.00 0.00 0.00 50 1021.9
20260905195241 35 209 3.2 6.4 0.00 0.00 0.00 54 1021.9
20260905194737 36 244 1.6 1.6 0.00 0.00 0.00 54 1022.1
20260905194236 35 230 1.6 1.6 0.00 0.00 0.00 55 1021.8
20260905193736 35 214 3.2 6.4 0.00 0.00 0.00 56 1022.1
20260905193231 35 177 6.4 8.0 0.00 0.00 0.00 56 1022.0
20260905192727 35 258 6.4 8.0 0.00 0.00 0.00 54 1022.2
20260905192223 35 216 0.0 0.0 0.00 0.00 0.00 54 1022.3
20260905191722 35 265 3.2 3.2 0.00 0.00 0.00 53 1022.3
20260905191220 35 236 1.6 1.6 0.00 0.00 0.00 55 1022.4
20260905190719 35 229 3.2 6.4 0.00 0.00 0.00 54 1022.6
20260905190218 35 231 6.4 8.0 0.00 0.00 0.00 54 1022.6
20260905185718 35 292 4.8 8.0 0.00 0.00 0.00 58 1022.9
20260905185212 35 223 1.6 3.2 0.00 0.00 0.00 53 1022.8
20260905184707 34 231 4.8 6.4 0.00 0.00 0.00 54 1023.3
20260905184206 34 259 6.4 8.0 0.00 0.00 0.00 57 1023.2
20260905183705 34 207 6.4 8.0 0.00 0.00 0.00 57 1023.1
20260905183201 35 266 3.2 3.2 0.00 0.00 0.00 57 1023.3
20260905182700 34 251 4.8 6.4 0.00 0.00 0.00 58 1023.5
20260905182200 35 213 8.0 8.0 0.00 0.00 0.00 58 1023.5
20260905181655 35 212 3.2 6.4 0.00 0.00 0.00 60 1023.6
20260905181154 33 11 4.8 6.4 0.00 0.00 0.00 58 1023.6
20260905180649 34 167 4.8 6.4 0.00 0.00 0.00 58 1023.8
20260905180145 33 232 3.2 6.4 0.00 0.00 0.00 60 1023.8
20260905175643 33 193 6.4 8.0 0.00 0.00 0.00 58 1023.8
20260905175139 34 287 6.4 6.4 0.00 0.00 0.00 58 1024.0
20260905174635 33 312 6.4 8.0 0.00 0.00 0.00 60 1024.2
20260905174130 33 273 4.8 6.4 0.00 0.00 0.00 61 1023.9
20260905173626 33 230 6.4 8.0 0.00 0.00 0.00 60 1024.2
20260905173122 33 165 3.2 3.2 0.00 0.00 0.00 62 1024.2
20260905172620 33 225 4.8 9.7 0.00 0.00 0.00 60 1024.2
20260905172115 33 175 3.2 6.4 0.00 0.00 0.00 62 1024.2
20260905171612 33 219 9.7 12.9 0.00 0.00 0.00 61 1024.2
20260905171108 33 83 3.2 3.2 0.00 0.00 0.00 62 1024.1
20260905170604 33 222 4.8 8.0 0.00 0.00 0.00 63 1024.2
20260905170059 33 220 3.2 3.2 0.00 0.00 0.00 64 1024.5
20260905165600 33 234 4.8 6.4 0.00 0.00 0.00 63 1024.5
20260905165055 32 186 4.8 8.0 0.00 0.00 0.00 63 1024.7
20260905164550 32 191 6.4 9.7 0.00 0.00 0.00 63 1024.7
20260905164049 32 231 1.6 6.4 0.00 0.00 0.00 64 1024.9
20260905163546 32 250 8.0 11.3 0.00 0.00 0.00 64 1025.1
20260905163042 33 238 6.4 9.7 0.00 0.00 0.00 65 1025.0
20260905162538 32 199 3.2 6.4 0.00 0.00 0.00 67 1025.1
20260905162032 33 156 3.2 3.2 0.00 0.00 0.00 64 1025.1
20260905161532 32 246 3.2 3.2 0.00 0.00 0.00 65 1025.1
20260905161029 32 260 3.2 3.2 0.00 0.00 0.00 68 1025.2
20260905160528 32 193 6.4 8.0 0.00 0.00 0.00 64 1025.3
20260905160023 32 210 1.6 1.6 0.00 0.00 0.00 66 1025.4
20260905155523 32 280 4.8 6.4 0.00 0.00 0.00 65 1025.6
20260905155021 31 250 4.8 9.7 0.00 0.00 0.00 68 1025.5
20260905154517 31 244 11.3 14.5 0.00 0.00 0.00 67 1025.6
20260905154012 31 177 3.2 3.2 0.00 0.00 0.00 69 1025.6
20260905153508 31 195 9.7 11.3 0.00 0.00 0.00 69 1025.7
20260905153008 31 159 6.4 9.7 0.00 0.00 0.00 70 1025.5
20260905152508 31 171 3.2 3.2 0.00 0.00 0.00 70 1025.7
20260905152002 31 204 6.4 8.0 0.00 0.00 0.00 70 1025.6
20260905151458 31 244 3.2 6.4 0.00 0.00 0.00 70 1025.7
20260905150952 31 255 9.7 11.3 0.00 0.00 0.00 69 1025.7
20260905150448 30 242 6.4 8.0 0.00 0.00 0.00 71 1025.8
20260905145944 31 236 3.2 6.4 0.00 0.00 0.00 72 1025.8
20260905145439 30 235 8.0 11.3 0.00 0.00 0.00 73 1026.0
20260905144938 30 227 6.4 9.7 0.00 0.00 0.00 72 1025.7
20260905144434 30 268 8.0 9.7 0.00 0.00 0.00 73 1025.8
20260905143933 30 256 6.4 8.0 0.00 0.00 0.00 74 1025.8
20260905143432 30 279 6.4 11.3 0.00 0.00 0.00 74 1025.8
20260905142932 30 222 3.2 3.2 0.00 0.00 0.00 74 1025.8
20260905142431 30 263 0.0 1.6 0.00 0.00 0.00 75 1026.1
20260905141922 29 272 4.8 8.0 0.00 0.00 0.00 77 1026.1
20260905141422 29 240 9.7 14.5 0.00 0.00 0.00 76 1026.0
20260905140918 29 216 6.4 8.0 0.00 0.00 0.00 76 1025.9
20260905140413 28 208 8.0 11.3 0.00 0.00 0.00 77 1026.1
20260905135912 28 186 9.7 11.3 0.00 0.00 0.00 78 1026.0
20260905135408 28 171 3.2 6.4 0.00 0.00 0.00 78 1025.8
20260905134903 29 236 4.8 8.0 0.00 0.00 0.00 77 1025.8
20260905134402 28 179 4.8 6.4 0.00 0.00 0.00 79 1025.9
20260905133856 28 244 3.2 3.2 0.00 0.00 0.00 80 1026.1
20260905133351 28 222 1.6 1.6 0.00 0.00 0.00 81 1026.0
20260905132851 28 295 4.8 6.4 0.00 0.00 0.00 82 1026.2
20260905132347 28 137 1.6 1.6 0.00 0.00 0.00 82 1026.2
20260905131846 27 220 3.2 6.4 0.00 0.00 0.00 84 1026.2
20260905131342 27 231 4.8 8.0 0.00 0.00 0.00 85 1026.3
20260905130837 27 277 3.2 6.4 0.00 0.00 0.00 85 1026.2
20260905130335 27 206 1.6 1.6 0.00 0.00 0.00 86 1026.3